La Junta, CO

10:05 AM MDT on May 27, 2017 (GMT -0600)
La Junta Municipal

Weather History for KLHX - August, 2013

Change the Weather History Date:

Tuesday, August 6, 2013

  Actual Average Record
Temperature  
Mean Temperature 84 °F 78 °F  
Max Temperature 98 °F 92 °F 105 °F (1975)
Min Temperature 70 °F 63 °F 51 °F (1974)
Degree Days  
Heating Degree Days 0 0  
Month to date heating degree days 0 0  
Since 1 June heating degree days 11 17  
Since 1 July heating degree days 0 1  
Cooling Degree Days 19 12  
Month to date cooling degree days 94 77  
Year to date cooling degree days 1061 808  
Since 1 June cooling degree days 923 735  
Growing Degree Days 34 (Base 50)    
Moisture  
Dew Point 55 °F    
Average Humidity 51    
Maximum Humidity 84    
Minimum Humidity 17    
Precipitation  
Precipitation 0.00 in 0.06 in 1.23 in (1954)
Month to date precipitation T 0.36  
Year to date precipitation 3.56  
Sea Level Pressure  
Sea Level Pressure 29.78 in    
Wind  
Wind Speed 6 mph (WNW)    
Max Wind Speed 22 mph    
Max Gust Speed 25 mph    
Visibility 10 miles    
Events      
T = Trace of Precipitation, MM = Missing Value Source: NWS Daily Summary

Daily Weather History Graph

Daily Weather History Graph

Search for Another Location

Airport or City:

Trip Planner

Search our weather history database for the weather conditions in past years. The results will help you decide how hot, cold, wet, or windy it might be!

Date:

Astronomy

Aug. 06, 2013 Rise Set
Actual Time 6:01 AM MDT 7:57 PM MDT
Civil Twilight 5:32 AM MDT 8:26 PM MDT
Nautical Twilight 4:57 AM MDT 9:01 PM MDT
Astronomical Twilight 4:19 AM MDT 9:38 PM MDT
Moon 5:53 AM MDT (8/6) 7:35 PM MDT (8/6)
Length of Visible Light 14h 53m
Length of Day
13h 56m
Waning Crescent, 0% of the Moon is Illuminated
Aug 6
Waning Crescent
Aug 6
New
Aug 14
First Quarter
Aug 20
Full
Aug 28
Last Quarter

Hourly Weather History & Observations

Time (MDT) Temp. Heat Index Dew Point Humidity Pressure Visibility Wind Dir Wind Speed Gust Speed Precip Events Conditions
12:53 AM 75.0 °F - 66.0 °F 73% 29.84 in 10.0 mi ENE 8.1 mph - N/A   Clear
1:53 AM 73.0 °F - 66.0 °F 79% 29.81 in 10.0 mi East 5.8 mph - N/A   Clear
2:53 AM 73.9 °F - 64.9 °F 73% 29.79 in 10.0 mi Calm Calm - N/A   Clear
3:53 AM 72.0 °F - 66.0 °F 81% 29.78 in 10.0 mi West 3.5 mph - N/A   Clear
4:53 AM 71.1 °F - 64.0 °F 78% 29.76 in 10.0 mi North 5.8 mph - N/A   Clear
5:53 AM 71.1 °F - 57.9 °F 63% 29.77 in 10.0 mi SSW 4.6 mph - N/A   Clear
6:53 AM 71.1 °F - 61.0 °F 70% 29.79 in 10.0 mi West 9.2 mph - N/A   Clear
7:53 AM 73.9 °F - 61.0 °F 64% 29.79 in 10.0 mi West 5.8 mph - N/A   Clear
8:53 AM 75.9 °F - 63.0 °F 64% 29.81 in 10.0 mi SSW 6.9 mph - N/A   Clear
9:53 AM 82.0 °F 82.4 °F 60.1 °F 47% 29.79 in 10.0 mi West 5.8 mph - N/A   Clear
10:53 AM 87.1 °F 85.3 °F 55.0 °F 33% 29.78 in 10.0 mi West 12.7 mph - N/A   Clear
11:53 AM 90.0 °F - 48.9 °F 24% 29.78 in 10.0 mi WNW 9.2 mph 18.4 mph N/A   Clear
12:53 PM 93.0 °F - 48.0 °F 21% 29.75 in 10.0 mi West 8.1 mph - N/A   Clear
1:53 PM 93.9 °F - 46.0 °F 19% 29.74 in 10.0 mi NNW 4.6 mph 17.3 mph N/A   Clear
2:53 PM 96.1 °F - 46.0 °F 18% 29.72 in 10.0 mi Variable 3.5 mph - N/A   Clear
3:53 PM 97.0 °F - 45.0 °F 17% 29.70 in 10.0 mi WNW 8.1 mph - N/A   Clear
4:53 PM 95.0 °F - 44.1 °F 17% 29.71 in 10.0 mi West 9.2 mph 19.6 mph N/A   Clear
5:53 PM 93.0 °F - 44.1 °F 18% 29.72 in 10.0 mi WSW 17.3 mph - N/A   Clear
6:53 PM 87.1 °F 85.9 °F 57.0 °F 36% 29.75 in 10.0 mi ENE 4.6 mph - N/A   Overcast
7:53 PM 82.9 °F - 51.1 °F 33% 29.81 in 8.0 mi Calm Calm - N/A   Scattered Clouds
8:53 PM 79.0 °F - 51.1 °F 38% 29.82 in 10.0 mi Variable 3.5 mph - N/A   Partly Cloudy
9:53 PM 77.0 °F - 52.0 °F 42% 29.82 in 10.0 mi West 4.6 mph - N/A   Clear
10:53 PM 78.1 °F - 54.0 °F 43% 29.81 in 10.0 mi North 11.5 mph - N/A   Clear
11:53 PM 73.9 °F - 53.1 °F 48% 29.82 in 10.0 mi NNE 4.6 mph - N/A   Clear